Powrót do katalogu

CZ-6A DEB

AktywnyPO
NORAD 61368·DEBRIS·🇨🇳 China

Wystrzelony Aug 6, 2024 z Taiyuan Satellite Launch Center

Loading…

Następne Przeloty (najbliższe 24 godziny)

TLE

ŚwieżeSource: Space-Track

Epoka: Sep 14, 2026, 10:44 UTC

1 61368U 24140WH  26257.44776603  .00001997  00000-0  10962-2 0  9990
2 61368  88.8335 251.8412 0110914 325.4562  33.9448 14.08356903104024

Śledź CZ-6A DEB w czasie rzeczywistym z AllMySat

Download on the App Store